Погода во Фроловке

Россия / Приморский край     43°12′33″N   133°16′05″E
темп.,
°C
ветер,
м/с
пор.,
м/с
влажн.,
%
обл.,
%
осадки,
мм/ч
давл.,
гПа
погр.,
м
17 мая, вт
вт1701:00+6всв1178100 0.0 100810
04:00+4ссв11825 0.0 100910
07:00+6ссв11750 0.0 101053
10:00+16з11420 0.0 1010757
13:00+20ююз23274 0.0 10092713
16:00+20юз43265 0.0 10082710
19:00+15ю37440 0.0 1010449
22:00+7ююв11680 0.0 101318
18 мая, ср
ср1801:00+5юв11765 0.0 101510
04:00+5зюз018156 0.0 101410
07:00+8ссв017197 0.0 101444
10:00+17зюз244768 0.0 1013737
13:00+21ююз3638100 0.0 10112239
16:00+20зюз3543100 0.0 10111342
19:00+13всв2375100 0.1 1013202
22:00+11св1182100 0.1 101419
19 мая, чт
чт1901:00+10ююв0088100 0.4 101412
04:00+9ссв119696 1.1 101418
07:00+9ссв12921 0.0 101464
10:00+18юз01555 0.0 1012754
13:00+22зюз22355 0.0 10101894
16:00+23юз45335 0.0 10072196
19:00+17ююз37615 0.0 1008500
22:00+10ююз2284100 0.0 100944
20 мая, пт
пт2001:00+10ююз118693 0.1 100817
04:00+9ссз1194100 0.4 100718
07:00+10с12954 0.4 100887
10:00+17с47450 0.4 10081721
13:00+21ссз46282 0.0 10072271
16:00+23ссз48200 0.0 10062142
19:00+20вюв114528 0.0 100511
22:00+12ю116362 0.0 100816
21 мая, сб
сб2101:00+10ююв11796 0.1 100811
04:00+9юв017318 0.1 100712
07:00+11ссв117398 0.0 100742
10:00+17зюз21059100 0.1 1005558
13:00+16ссв1279100 1.0 1005262
16:00+14юв1294100 4.6 100465
19:00+17ю0181100 0.3 1003207
22:00+12сз1198100 5.6 100515